Regional Weather Roundup
Issued by NWS Cleveland, OH

Home | Current Version | Previous Version | Text Only | Print | Product List | Glossary Off
Versions: 1 2 3 4 5 6 7 8 9 10 11 12 13 14 15 16 17 18 19 20 21 22 23 24 25 26 27 28 29 30 31 32 33 34 35 36 37 38 39 40 41 42 43 44 45 46 47 48 49 50

000
ASUS41 KCLE 251710
RWRCLE
OHIO REGIONAL WEATHER ROUNDUP
NATIONAL WEATHER SERVICE WILMINGTON, OH
100 PM EDT MON SEP 25 2017

NOTE: "FAIR" INDICATES FEW OR NO CLOUDS BELOW 12,000 FEET WITH NO
SIGNIFICANT WEATHER AND/OR OBSTRUCTIONS TO VISIBILITY.

OHZ001>008-015>018-024>027-034-035-043-044-251800-
   NORTHWEST OHIO

CITY           SKY/WX    TMP DP  RH WIND       PRES   REMARKS
DEFIANCE       FAIR      86  59  39 CALM      30.05F
FINDLAY        FAIR      86  60  41 CALM      30.05F
TOLEDO EXPRESS FAIR      88  63  43 CALM      30.05F
TOLEDO EXEC    FAIR      88  62  41 S5        30.05F
LIMA           FAIR      85  61  44 CALM      30.06F
$$

OHZ009>014-019>023-028>033-038-089-251800-
   NORTHEAST OHIO

CITY           SKY/WX    TMP DP  RH WIND       PRES   REMARKS
CLE-HOPKINS    FAIR      91  62  37 SE9       30.07F HX  91
CLE-LAKEFRONT  PTSUNNY   81  68  64 N7        30.05F
CUY CO. ARPT   MOSUNNY   90  64  43 S5        30.08F HX  91
LORAIN-ELYRIA  FAIR      87  58  37 SE7       30.07F
ASHTABULA      FAIR      86  64  47 S9        30.09F
AKRON-CANTON   PTSUNNY   86  62  44 S5        30.09F
WOOSTER        FAIR      85  63  47 CALM      30.09F
MANSFIELD      FAIR      86  62  44 VRB3      30.09F
YOUNGSTOWN     PTSUNNY   85  65  51 VRB5      30.10F
$$

OHZ042-051>053-060>062-070>072-077>081-251800-
  SOUTHWEST OHIO

CITY           SKY/WX    TMP DP  RH WIND       PRES   REMARKS
CINC-COVINGTON PTSUNNY   84  65  52 W3        30.06F
CINC-LUNKEN    FAIR      84  64  50 CALM      30.05F
HAMILTON       FAIR      86  62  44 CALM      30.06F
DAYTON         PTSUNNY   83  62  49 CALM      30.07F
WRIGHT-PAT AFB FAIR      84  63  49 CALM      30.05F
DAYTON GENERAL FAIR      84  58  40 NW3       30.06F
WILMINGTON     FAIR      84  63  49 W3        30.06F
$$

OHZ036-037-039>041-045>050-054>059-063>069-073>076-082>088-251800-
  CENTRAL AND SOUTHEAST OHIO

CITY           SKY/WX    TMP DP  RH WIND       PRES   REMARKS
COLUMBUS       FAIR      84  66  54 CALM      30.06F
OSU AIRPORT    FAIR      85  63  47 VRB3      30.06F
BOLTON FIELD   SUNNY     84  64  51 CALM      30.07F
RICKENBACK AFB FAIR      83  64  51 CALM      30.05F
NEWARK         FAIR      85  63  47 VRB5      30.06F
MARION         FAIR      87  60  40 VRB5      30.07F
LANCASTER      FAIR      83  67  58 CALM      30.07F
ZANESVILLE     FAIR      86  61  42 SE7       30.07F
NEW PHILLY     FAIR      88  62  41 E7        30.08F
$$




USA.gov is the U.S. government's official web portal to all federal, state and local government web resources and services.